EDT,Max TemperatureF,Mean TemperatureF,Min TemperatureF,Max Dew PointF,MeanDew PointF,Min DewpointF,Max Humidity, Mean Humidity, Min Humidity, Max Sea Level PressureIn, Mean Sea Level PressureIn, Min Sea Level PressureIn, Max VisibilityMiles, Mean VisibilityMiles, Min VisibilityMiles, Max Wind SpeedMPH, Mean Wind SpeedMPH, Max Gust SpeedMPH,PrecipitationIn, CloudCover, Events, WindDirDegrees
2013-6-1,80,71,62,64,62,59,94,76,54,30.05,29.94,29.84,10,10,10,18,8,30,0.00,6,Thunderstorm,205
2013-6-2,71,63,55,63,58,52,100,77,56,29.94,29.84,29.78,10,10,9,21,10,29,0.39,6,Thunderstorm,245
2013-6-3,57,50,44,50,41,34,88,71,44,30.08,30.00,29.93,10,9,3,13,9,17,0.00,4,,320
2013-6-4,62,53,44,45,38,32,93,59,38,30.19,30.15,30.08,10,10,7,13,5,17,0.00,0,,344
2013-6-5,71,56,42,48,42,36,87,57,38,30.21,30.13,30.02,10,10,10,13,3,21,0.00,0,,59
2013-6-6,62,60,57,57,54,46,100,86,63,30.02,29.91,29.84,10,8,2,14,6,,2.10,7,Thunderstorm,148
2013-6-7,59,56,53,57,53,52,100,95,94,29.87,29.85,29.83,10,2,0,13,6,,0.03,8,,350
2013-6-8,60,56,53,52,51,48,94,85,68,30.14,29.99,29.87,10,8,1,12,6,,0.00,7,,297
2013-6-9,71,58,46,54,50,45,100,69,43,30.22,30.17,30.11,10,8,0,9,3,,0.00,2,,102
2013-6-10,66,64,62,64,61,54,94,88,68,30.12,29.92,29.78,10,9,4,12,7,16,0.31,7,,158
2013-6-11,64,62,59,61,58,57,94,88,77,29.91,29.83,29.74,10,8,2,18,11,24,0.14,7,,271
2013-6-12,73,65,57,63,58,54,100,81,53,29.96,29.90,29.81,10,8,0,8,4,,0.19,5,,348
2013-6-13,64,58,53,63,58,52,100,93,88,29.83,29.66,29.50,10,6,0,22,8,31,0.46,8,Thunderstorm,338
2013-6-14,66,60,53,55,54,52,94,82,64,30.05,29.96,29.82,10,9,0,14,8,16,0.00,7,,327
2013-6-15,69,60,51,55,50,45,100,70,43,30.12,30.07,30.03,10,8,0,12,5,17,0.00,2,,260
2013-6-16,71,64,57,61,57,52,88,81,68,30.03,29.91,29.82,10,10,5,20,9,29,0.02,5,,229
2013-6-17,75,67,59,59,56,52,94,68,50,29.98,29.95,29.91,10,10,5,17,9,23,0.00,1,,263
2013-6-18,66,60,55,57,53,43,94,73,59,30.05,29.97,29.92,10,10,10,15,6,20,0.00,4,,359
2013-6-19,66,57,48,46,44,37,87,61,45,30.22,30.14,30.05,10,10,10,13,5,16,0.00,1,,10
2013-6-20,73,60,48,52,46,37,82,57,41,30.28,30.24,30.21,10,10,10,9,5,,0.00,0,,16
2013-6-21,77,64,51,54,48,37,77,55,33,30.31,30.27,30.23,10,10,9,8,3,,0.00,0,,219
2013-6-22,80,70,59,64,61,54,94,70,54,30.23,30.18,30.11,10,10,6,15,7,22,0.00,0,,196
2013-6-23,84,75,66,68,65,63,94,71,54,30.17,30.14,30.10,10,10,7,15,7,23,0.00,2,,222
2013-6-24,82,74,66,66,64,63,88,70,51,30.15,30.11,30.04,10,10,9,14,6,18,0.00,1,,244
2013-6-25,78,71,64,66,63,61,94,79,57,30.05,29.98,29.90,10,10,7,20,8,30,0.01,3,,238
2013-6-26,75,70,64,64,63,61,94,84,65,29.94,29.91,29.87,10,10,5,13,8,17,0.02,5,,239
2013-6-27,71,66,62,66,64,61,100,92,83,29.87,29.78,29.70,10,6,0,7,3,,0.10,5,,116
2013-6-28,69,64,57,63,61,55,100,92,78,29.69,29.60,29.54,10,6,0,13,4,,0.54,6,Thunderstorm,272
2013-6-29,69,64,59,61,59,57,100,88,64,29.75,29.62,29.54,10,6,0,10,5,,1.60,7,,263
2013-6-30,73,66,60,64,61,57,100,87,69,29.95,29.85,29.75,10,7,0,10,3,,0.00,6,,37